User: anonymous   Login
Location: Roanoke
(37.2710°N, 79.9420°W)
Time: 21:51:18
(UTC-05:00)
Language:

Cosmos 1441 Rocket - Orbit

View from above orbital plane
View from above orbital plane
View from above satellite
View from above satellite

Ground track
Ground track

The orbit data is extracted from the following two-line orbital elements,

1 13819U 83010B   14328.41191147  .00003383  00000-0  19466-3 0    65
2 13819 081.1157 170.1027 0034762 212.6539 147.2539 15.11676361732140
Epoch (UTC): 24 November 2014 09:53:09
Eccentricity: 0.0034762
inclination: 81.1157°
perigee height: 507 km
apogee height: 555 km
right ascension of ascending node: 170.1027°
argument of perigee: 212.6539°
revolutions per day: 15.11676361
mean anomaly at epoch: 147.2539°
orbit number at epoch: 73214

The dashed part of the orbit path shows where the satellite is in the earth's shadow,  

DLR